Showing default

YAOGAN-43 03B, 61618

Orbit data source: Space-Track

YAOGAN-43 03B, 61618 is a payload satellite owned by PLA GAD (CN) in LEO that was launched on Wed, 23 Oct 2024 UTC via a CHANG ZHENG 2C launch vehicle from the Xichang Space Center, China (XSC). Payload-class satellites include a variety of spacecraft equipped with specific instruments for various scientific and technological missions. These include communications satellites like Starlink; space stations such as the ISS; scientific satellites like the Hubble; Earth observation satellites from companies like Planet Labs, Umbra, and HawkEye 360; GPS; miniature CubeSats for education and research; and military/defense satellites.

Loading next visibility...
Identifier
61618, 2024-190B
Orbit
LEO
Country
Flag of CNCN / PRC
Related business
Manufacturer
SAST
Mission
Operational Defense Communications
Bus & Motor
Unknown
Mass
~300 kg wet, ~300 kg dry
Launch date (UTC)
2024-10-23 (11 months ago)
Launch vehicle
CHANG ZHENG 2C
Launch site
Xichang Space Center, China (XSC)
Object type
Payload
Rocket body
Debris
Shape & HBR
Box + 2 Pan, 2.5 m
Radar Cross Section
11.063 m², Large (>1 m²)

Expand to show TLE details & history
Last TLE update: 19 hours ago

TLE from 19 hours ago
0 YAOGAN-43 03B
1 61618U 24190B   25260.02853242  .00008435  00000-0  35100-3 0  9991
2 61618  34.9897 115.7992 0006096 358.7516   1.3182 15.23013229 50192
Epoch: 2025-09-17T00:41Z
TLE epoch observation values (Epoch: 2025-09-17T00:41:05.201Z)
Latitude
-0.00003°
Longitude
109.31712°
Altitude
491.475 km
Speed
7.624 km/s
True Right ascension
07h 43m 11s
True Declination
0° 00' 00"
Sunlit
Object was in daylight at epoch
Visualization orbit readout
Latitude
Unknown
Longitude
Unknown
Altitude
Unknown
Speed
Unknown
Apparent Right ascension
Unknown
Apparent Declination
Unknown
Sunlit
N/A
Visualization observer readout
Local Sidereal Time
12:27:57
Azimuth
Unknown
Elevation
Unknown
Doppler factor
Unknown
Orbital elements
Apogee altitude
504.203 km
Perigee altitude
495.817 km
Semi-major axis
6,878.147 km
Eccentricity
0.00061
Inclination
34.9897°
RAAN
115.7992°
Arg. of periapsis
358.7516°
True anomaly
1.31981°
Mean anomaly
1.3182°
Eccentric anomaly
1.319°
Mean motion
3.80484 °/min
Orbital period
94.62 mins
BSTAR
0.000351
Loading maneuver chart data...
Computing Atmospheric mass density...
Loading historical data...
Loading historical data...
Loading historical data...
Loading historical data...
Loading historical data...
Loading historical data...
Loading historical data...
Other satellites on launch #190 in the year 2024 (2024-10-23 UTC)

Documentation

Showing up to 5 results
|